Location: Unspecified
(0.0000°N, 0.0000°E)
Time: 16:06:07
(UTC+00:00)

Altair - Pass Details

Date: 01 October 2023
Orbit: 1501 x 1682 km, 47.2° (Epoch: 06 December)

Event Time Altitude Azimuth Distance (km) Brightness Sun altitude
Rises 13:03:34 0° 278° (W) 4,879 10.4 71.3°
Reaches altitude 10° 13:08:50 10° 256° (WSW) 3,859 10.1 70.0°
Maximum altitude 13:13:37 14° 226° (SW) 3,478 9.9 68.8°
Drops below altitude 10° 13:18:20 10° 196° (SSW) 3,791 9.8 67.6°
Sets 13:23:31 0° 173° (S) 4,736 10.1 66.3°
